TimeCST,TemperatureF,Dew PointF,Humidity,Sea Level PressureIn,VisibilityMPH,Wind Direction,Wind SpeedMPH,Gust SpeedMPH,PrecipitationIn,Events,Conditions,WindDirDegrees,DateUTC
12:02 AM,51.8,48.2,88,29.82,9.0,South,6.9,-,N/A,,Overcast,170,2012-12-09 06:02:00
12:42 AM,51.8,48.2,88,29.82,9.0,NW,4.6,-,0.00,Rain,Light Rain,310,2012-12-09 06:42:00
12:52 AM,51.1,48.9,92,29.82,9.0,NW,6.9,-,0.00,,Overcast,320,2012-12-09 06:52:00
1:52 AM,50.0,48.9,96,29.81,5.0,Calm,Calm,-,0.00,,Overcast,0,2012-12-09 07:52:00
2:20 AM,50.0,48.2,94,29.80,5.0,East,3.5,-,N/A,,Overcast,100,2012-12-09 08:20:00
2:39 AM,50.0,48.2,94,29.80,5.0,East,3.5,-,N/A,,Overcast,80,2012-12-09 08:39:00
2:52 AM,50.0,48.0,93,29.80,5.0,NNE,4.6,-,N/A,,Overcast,30,2012-12-09 08:52:00
3:01 AM,50.0,48.2,94,29.80,5.0,NE,3.5,-,N/A,,Overcast,50,2012-12-09 09:01:00
3:52 AM,50.0,48.0,93,29.80,4.0,NNE,5.8,-,N/A,,Overcast,20,2012-12-09 09:52:00
4:41 AM,48.2,48.2,100,29.79,4.0,ENE,3.5,-,N/A,,Overcast,60,2012-12-09 10:41:00
4:52 AM,48.9,48.0,97,29.80,4.0,NE,3.5,-,N/A,,Overcast,40,2012-12-09 10:52:00
5:04 AM,48.2,48.2,100,29.78,4.0,ENE,4.6,-,N/A,,Overcast,70,2012-12-09 11:04:00
5:22 AM,48.2,48.2,100,29.78,2.5,East,4.6,-,N/A,,Overcast,80,2012-12-09 11:22:00
5:38 AM,48.2,48.2,100,29.79,1.5,Calm,Calm,-,N/A,,Overcast,0,2012-12-09 11:38:00
5:52 AM,48.9,48.9,100,29.80,1.0,Calm,Calm,-,N/A,,Overcast,0,2012-12-09 11:52:00
6:05 AM,48.2,48.2,100,29.79,0.8,Calm,Calm,-,N/A,,Overcast,0,2012-12-09 12:05:00
6:13 AM,50.0,48.2,94,29.79,1.2,NNE,4.6,-,N/A,,Overcast,30,2012-12-09 12:13:00
6:29 AM,50.0,48.2,94,29.79,2.0,Calm,Calm,-,N/A,,Overcast,0,2012-12-09 12:29:00
6:52 AM,50.0,48.9,96,29.79,2.0,ENE,3.5,-,N/A,,Overcast,70,2012-12-09 12:52:00
7:00 AM,50.0,48.2,94,29.78,1.5,Calm,Calm,-,N/A,,Overcast,0,2012-12-09 13:00:00
7:19 AM,50.0,48.2,94,29.79,0.2,Calm,Calm,-,N/A,Fog,Fog,0,2012-12-09 13:19:00
7:52 AM,50.0,50.0,100,29.79,0.2,Calm,Calm,-,N/A,Fog,Fog,0,2012-12-09 13:52:00
7:59 AM,50.0,50.0,100,29.80,0.5,Calm,Calm,-,N/A,Fog,Fog,0,2012-12-09 13:59:00
8:50 AM,50.0,48.2,94,29.81,0.8,NNW,11.5,-,N/A,,Overcast,330,2012-12-09 14:50:00
8:52 AM,50.0,48.9,96,29.82,0.8,NNW,9.2,-,N/A,,Overcast,330,2012-12-09 14:52:00
9:49 AM,48.2,48.2,100,29.83,1.5,North,13.8,-,N/A,,Overcast,350,2012-12-09 15:49:00
9:52 AM,48.0,48.0,100,29.83,1.5,NNW,10.4,-,N/A,,Overcast,340,2012-12-09 15:52:00
10:06 AM,48.2,46.4,93,29.83,3.0,NNW,12.7,-,N/A,,Overcast,340,2012-12-09 16:06:00
10:52 AM,48.0,46.0,93,29.84,6.0,North,15.0,-,N/A,,Overcast,350,2012-12-09 16:52:00
11:52 AM,46.9,45.0,93,29.83,9.0,North,15.0,-,N/A,,Overcast,350,2012-12-09 17:52:00
12:52 PM,46.0,43.0,89,29.83,7.0,NNW,12.7,-,N/A,,Overcast,340,2012-12-09 18:52:00
1:52 PM,46.0,42.1,86,29.84,10.0,North,12.7,-,N/A,,Overcast,350,2012-12-09 19:52:00
2:52 PM,45.0,41.0,86,29.84,9.0,NNW,9.2,-,N/A,,Overcast,340,2012-12-09 20:52:00
3:42 PM,46.4,41.0,81,29.86,10.0,NNW,12.7,-,N/A,,Overcast,330,2012-12-09 21:42:00
3:52 PM,46.0,41.0,83,29.87,10.0,NNW,12.7,-,N/A,,Overcast,330,2012-12-09 21:52:00
4:52 PM,45.0,39.9,82,29.88,10.0,NW,16.1,-,N/A,,Overcast,320,2012-12-09 22:52:00
5:52 PM,44.1,37.0,76,29.91,10.0,NNW,17.3,-,N/A,,Overcast,330,2012-12-09 23:52:00
6:38 PM,42.8,37.4,81,29.92,10.0,NW,19.6,26.5,N/A,,Overcast,320,2012-12-10 00:38:00
6:45 PM,42.8,35.6,76,29.93,10.0,NW,16.1,26.5,N/A,,Overcast,320,2012-12-10 00:45:00
6:52 PM,42.1,36.0,79,29.94,10.0,NNW,16.1,-,N/A,,Overcast,330,2012-12-10 00:52:00
7:52 PM,39.0,32.0,76,29.96,10.0,NW,13.8,23.0,N/A,,Mostly Cloudy,320,2012-12-10 01:52:00
8:08 PM,39.2,32.0,75,29.94,10.0,NW,15.0,21.9,N/A,,Scattered Clouds,310,2012-12-10 02:08:00
8:52 PM,35.1,27.0,72,29.97,10.0,NW,18.4,23.0,N/A,,Clear,320,2012-12-10 02:52:00
9:52 PM,30.9,21.9,69,29.99,10.0,NNW,16.1,27.6,N/A,,Clear,340,2012-12-10 03:52:00
10:52 PM,28.0,18.0,66,30.02,10.0,NW,18.4,24.2,N/A,,Clear,320,2012-12-10 04:52:00
11:52 PM,27.0,17.1,66,30.03,10.0,NNW,12.7,-,N/A,,Clear,330,2012-12-10 05:52:00